| time (UTC) | temp F | wind direction | speed MPH | gust MPH | rain 1hr in | rain 24hr in | rain mn in | humidity % | barometer mb |
| 20260504234608 | 67 | 249 | 1.0 | 2.0 | 0.00 | 0.00 | 0.00 | 42 | 1011.5 |
| 20260504234106 | 68 | 256 | 1.0 | 1.0 | 0.00 | 0.00 | 0.00 | 41 | 1011.3 |
| 20260504233602 | 68 | 191 | 2.0 | 2.0 | 0.00 | 0.00 | 0.00 | 41 | 1011.4 |
| 20260504233058 | 68 | 260 | 0.0 | 1.0 | 0.00 | 0.00 | 0.00 | 41 | 1011.5 |
| 20260504232555 | 68 | 250 | 2.0 | 2.0 | 0.00 | 0.00 | 0.00 | 41 | 1011.4 |
| 20260504232053 | 68 | 186 | 3.0 | 3.0 | 0.00 | 0.00 | 0.00 | 40 | 1011.3 |
| 20260504231549 | 68 | 225 | 3.0 | 5.0 | 0.00 | 0.00 | 0.00 | 41 | 1011.2 |
| 20260504231045 | 68 | 262 | 1.0 | 2.0 | 0.00 | 0.00 | 0.00 | 40 | 1011.4 |
| 20260504230542 | 68 | 243 | 2.0 | 2.0 | 0.00 | 0.00 | 0.00 | 42 | 1011.4 |
| 20260504230041 | 68 | 256 | 1.0 | 1.0 | 0.00 | 0.00 | 0.00 | 41 | 1011.4 |
| 20260504225538 | 68 | 247 | 2.0 | 2.0 | 0.00 | 0.00 | 0.00 | 40 | 1011.3 |
| 20260504225035 | 69 | 250 | 1.0 | 1.0 | 0.00 | 0.00 | 0.00 | 39 | 1011.4 |
| 20260504224531 | 69 | 262 | 2.0 | 2.0 | 0.00 | 0.00 | 0.00 | 40 | 1011.5 |
| 20260504224028 | 69 | 259 | 1.0 | 1.0 | 0.00 | 0.00 | 0.00 | 39 | 1011.2 |
| 20260504223525 | 69 | 254 | 2.0 | 2.0 | 0.00 | 0.00 | 0.00 | 39 | 1011.6 |
| 20260504223021 | 69 | 190 | 5.0 | 7.0 | 0.00 | 0.00 | 0.00 | 39 | 1011.4 |
| 20260504222518 | 69 | 207 | 4.0 | 5.0 | 0.00 | 0.00 | 0.00 | 39 | 1011.6 |
| 20260504222016 | 69 | 209 | 4.0 | 5.0 | 0.00 | 0.00 | 0.00 | 38 | 1011.3 |
| 20260504221513 | 69 | 277 | 1.0 | 1.0 | 0.00 | 0.00 | 0.00 | 38 | 1011.4 |
| 20260504221009 | 69 | 274 | 2.0 | 2.0 | 0.00 | 0.00 | 0.00 | 38 | 1011.4 |
| 20260504220506 | 69 | 262 | 2.0 | 3.0 | 0.00 | 0.00 | 0.00 | 38 | 1011.5 |
| 20260504220003 | 69 | 257 | 1.0 | 1.0 | 0.00 | 0.00 | 0.00 | 38 | 1011.5 |
| 20260504215459 | 69 | 262 | 3.0 | 5.0 | 0.00 | 0.00 | 0.00 | 38 | 1011.6 |
| 20260504214956 | 69 | 223 | 3.0 | 3.0 | 0.00 | 0.00 | 0.00 | 37 | 1011.5 |
| 20260504214453 | 69 | 262 | 1.0 | 2.0 | 0.00 | 0.00 | 0.00 | 37 | 1011.5 |
| 20260504213949 | 69 | 199 | 3.0 | 3.0 | 0.00 | 0.00 | 0.00 | 38 | 1011.7 |
| 20260504213445 | 70 | 266 | 2.0 | 2.0 | 0.00 | 0.00 | 0.00 | 37 | 1011.6 |
| 20260504212943 | 69 | 286 | 2.0 | 3.0 | 0.00 | 0.00 | 0.00 | 38 | 1011.6 |
| 20260504212438 | 69 | 246 | 0.0 | 1.0 | 0.00 | 0.00 | 0.00 | 38 | 1011.8 |
| 20260504211936 | 69 | 240 | 3.0 | 3.0 | 0.00 | 0.00 | 0.00 | 38 | 1011.7 |
| 20260504211432 | 70 | 206 | 3.0 | 5.0 | 0.00 | 0.00 | 0.00 | 38 | 1011.5 |
| 20260504210930 | 70 | 254 | 1.0 | 2.0 | 0.00 | 0.00 | 0.00 | 38 | 1011.5 |
| 20260504210427 | 70 | 203 | 2.0 | 2.0 | 0.00 | 0.00 | 0.00 | 38 | 1011.5 |
| 20260504205924 | 70 | 226 | 2.0 | 2.0 | 0.00 | 0.00 | 0.00 | 38 | 1011.5 |
| 20260504205421 | 69 | 245 | 1.0 | 1.0 | 0.00 | 0.00 | 0.00 | 38 | 1011.8 |
| 20260504204919 | 69 | 245 | 1.0 | 2.0 | 0.00 | 0.00 | 0.00 | 38 | 1011.4 |
| 20260504204417 | 69 | 184 | 3.0 | 3.0 | 0.00 | 0.00 | 0.00 | 38 | 1011.4 |
| 20260504203916 | 69 | 204 | 3.0 | 3.0 | 0.00 | 0.00 | 0.00 | 38 | 1011.5 |
| 20260504203414 | 70 | 181 | 4.0 | 6.0 | 0.00 | 0.00 | 0.00 | 37 | 1011.6 |
| 20260504202909 | 70 | 245 | 2.0 | 3.0 | 0.00 | 0.00 | 0.00 | 37 | 1011.8 |
| 20260504202406 | 70 | 262 | 1.0 | 2.0 | 0.00 | 0.00 | 0.00 | 37 | 1011.7 |
| 20260504201903 | 70 | 211 | 2.0 | 2.0 | 0.00 | 0.00 | 0.00 | 37 | 1011.7 |
| 20260504201401 | 70 | 239 | 2.0 | 2.0 | 0.00 | 0.00 | 0.00 | 36 | 1011.7 |
| 20260504200857 | 70 | 240 | 3.0 | 3.0 | 0.00 | 0.00 | 0.00 | 36 | 1011.9 |
| 20260504200354 | 70 | 248 | 3.0 | 3.0 | 0.00 | 0.00 | 0.00 | 37 | 1011.9 |
| 20260504195851 | 70 | 250 | 3.0 | 5.0 | 0.00 | 0.00 | 0.00 | 37 | 1011.8 |
| 20260504195346 | 70 | 232 | 3.0 | 3.0 | 0.00 | 0.00 | 0.00 | 37 | 1012.0 |
| 20260504194843 | 70 | 240 | 2.0 | 2.0 | 0.00 | 0.00 | 0.00 | 36 | 1012.0 |
| 20260504194339 | 71 | 283 | 2.0 | 3.0 | 0.00 | 0.00 | 0.00 | 36 | 1011.9 |
| 20260504193835 | 71 | 233 | 4.0 | 5.0 | 0.00 | 0.00 | 0.00 | 36 | 1011.9 |
| 20260504193333 | 71 | 278 | 1.0 | 2.0 | 0.00 | 0.00 | 0.00 | 35 | 1012.0 |
| 20260504192831 | 71 | 271 | 2.0 | 2.0 | 0.00 | 0.00 | 0.00 | 36 | 1012.1 |
| 20260504192329 | 70 | 132 | 2.0 | 3.0 | 0.00 | 0.00 | 0.00 | 36 | 1012.2 |
| 20260504191827 | 71 | 229 | 3.0 | 3.0 | 0.00 | 0.00 | 0.00 | 35 | 1012.1 |
| 20260504191324 | 71 | 268 | 2.0 | 3.0 | 0.00 | 0.00 | 0.00 | 35 | 1012.3 |
| 20260504190820 | 71 | 217 | 2.0 | 3.0 | 0.00 | 0.00 | 0.00 | 35 | 1012.4 |
| 20260504190316 | 71 | 187 | 4.0 | 7.0 | 0.00 | 0.00 | 0.00 | 36 | 1012.3 |
| 20260504185813 | 71 | 343 | 3.0 | 3.0 | 0.00 | 0.00 | 0.00 | 35 | 1012.6 |
| 20260504185310 | 71 | 179 | 2.0 | 3.0 | 0.00 | 0.00 | 0.00 | 35 | 1012.6 |
| 20260504184806 | 72 | 179 | 3.0 | 5.0 | 0.00 | 0.00 | 0.00 | 34 | 1012.7 |
| 20260504184302 | 72 | 293 | 1.0 | 1.0 | 0.00 | 0.00 | 0.00 | 34 | 1012.7 |
| 20260504183758 | 73 | 207 | 1.0 | 3.0 | 0.00 | 0.00 | 0.00 | 34 | 1012.7 |
| 20260504183255 | 72 | 270 | 1.0 | 2.0 | 0.00 | 0.00 | 0.00 | 36 | 1012.9 |
| 20260504182753 | 71 | 185 | 2.0 | 3.0 | 0.00 | 0.00 | 0.00 | 35 | 1012.9 |
| 20260504182249 | 72 | 269 | 4.0 | 5.0 | 0.00 | 0.00 | 0.00 | 33 | 1013.0 |
| 20260504181747 | 72 | 201 | 1.0 | 1.0 | 0.00 | 0.00 | 0.00 | 34 | 1012.9 |
| 20260504181244 | 72 | 162 | 3.0 | 5.0 | 0.00 | 0.00 | 0.00 | 34 | 1013.0 |
| 20260504180743 | 72 | 193 | 5.0 | 5.0 | 0.00 | 0.00 | 0.00 | 34 | 1013.0 |
| 20260504180242 | 73 | 257 | 3.0 | 3.0 | 0.00 | 0.00 | 0.00 | 33 | 1013.1 |
| 20260504175739 | 74 | 302 | 1.0 | 1.0 | 0.00 | 0.00 | 0.00 | 33 | 1013.3 |
| 20260504175236 | 74 | 289 | 1.0 | 1.0 | 0.00 | 0.00 | 0.00 | 33 | 1013.3 |
| 20260504174734 | 73 | 252 | 1.0 | 1.0 | 0.00 | 0.00 | 0.00 | 34 | 1013.5 |
| 20260504174232 | 73 | 278 | 3.0 | 3.0 | 0.00 | 0.00 | 0.00 | 34 | 1013.6 |
| 20260504173727 | 73 | 256 | 2.0 | 2.0 | 0.00 | 0.00 | 0.00 | 34 | 1013.3 |
| 20260504173225 | 73 | 236 | 2.0 | 5.0 | 0.00 | 0.00 | 0.00 | 34 | 1013.6 |
| 20260504172721 | 71 | 294 | 0.0 | 0.0 | 0.00 | 0.00 | 0.00 | 33 | 1013.7 |
| 20260504172218 | 72 | 278 | 2.0 | 2.0 | 0.00 | 0.00 | 0.00 | 35 | 1013.4 |
| 20260504171714 | 72 | 256 | 3.0 | 3.0 | 0.00 | 0.00 | 0.00 | 34 | 1013.8 |
| 20260504171211 | 71 | 252 | 2.0 | 3.0 | 0.00 | 0.00 | 0.00 | 34 | 1013.6 |
| 20260504170708 | 71 | 187 | 3.0 | 5.0 | 0.00 | 0.00 | 0.00 | 33 | 1013.9 |
| 20260504170206 | 71 | 276 | 2.0 | 3.0 | 0.00 | 0.00 | 0.00 | 34 | 1014.1 |
| 20260504160124 | 71 | 283 | 1.0 | 1.0 | 0.00 | 0.00 | 0.00 | 38 | 1014.8 |
| 20260504151051 | 68 | 212 | 3.0 | 3.0 | 0.00 | 0.00 | 0.00 | 38 | 1015.2 |
| 20260504150548 | 68 | 280 | 1.0 | 2.0 | 0.00 | 0.00 | 0.00 | 37 | 1015.1 |
| 20260504141015 | 64 | 196 | 4.0 | 5.0 | 0.00 | 0.00 | 0.00 | 50 | 1015.2 |
| 20260504140511 | 63 | 245 | 1.0 | 2.0 | 0.00 | 0.00 | 0.00 | 50 | 1015.2 |
| 20260504130436 | 59 | 197 | 5.0 | 6.0 | 0.00 | 0.00 | 0.00 | 62 | 1015.4 |
| 20260504110323 | 47 | 214 | 2.0 | 2.0 | 0.00 | 0.00 | 0.00 | 78 | 1016.0 |
| 20260504100240 | 47 | 230 | 3.0 | 3.0 | 0.00 | 0.00 | 0.00 | 73 | 1016.1 |
| 20260504081633 | 48 | 236 | 2.0 | 2.0 | 0.00 | 0.00 | 0.00 | 60 | 1015.9 |
| 20260504081129 | 48 | 237 | 3.0 | 5.0 | 0.00 | 0.00 | 0.00 | 60 | 1015.8 |
| 20260504080626 | 48 | 247 | 2.0 | 3.0 | 0.00 | 0.00 | 0.00 | 61 | 1016.0 |
| 20260504080122 | 48 | 241 | 2.0 | 3.0 | 0.00 | 0.00 | 0.00 | 61 | 1015.9 |
| 20260504050439 | 50 | 272 | 1.0 | 2.0 | 0.00 | 0.00 | 0.00 | 50 | 1015.9 |
| 20260504045936 | 50 | 257 | 1.0 | 2.0 | 0.00 | 0.00 | 0.00 | 50 | 1015.8 |
| 20260504045432 | 50 | 282 | 2.0 | 2.0 | 0.00 | 0.00 | 0.00 | 51 | 1015.9 |
| 20260504044928 | 51 | 264 | 1.0 | 2.0 | 0.00 | 0.00 | 0.00 | 50 | 1015.7 |
| 20260504044426 | 51 | 272 | 2.0 | 2.0 | 0.00 | 0.00 | 0.00 | 49 | 1015.7 |
| 20260504043923 | 51 | 274 | 1.0 | 1.0 | 0.00 | 0.00 | 0.00 | 49 | 1015.7 |
| 20260504043420 | 51 | 278 | 0.0 | 0.0 | 0.00 | 0.00 | 0.00 | 50 | 1015.7 |
| 20260504042917 | 51 | 277 | 1.0 | 2.0 | 0.00 | 0.00 | 0.00 | 49 | 1015.6 |
| 20260504042414 | 51 | 255 | 2.0 | 2.0 | 0.00 | 0.00 | 0.00 | 49 | 1015.6 |
| 20260504041910 | 51 | 268 | 0.0 | 1.0 | 0.00 | 0.00 | 0.00 | 49 | 1015.7 |
| 20260504041406 | 51 | 279 | 1.0 | 1.0 | 0.00 | 0.00 | 0.00 | 48 | 1015.6 |
| 20260504040902 | 51 | 278 | 1.0 | 1.0 | 0.00 | 0.00 | 0.00 | 48 | 1015.5 |
| 20260504040400 | 51 | 272 | 1.0 | 1.0 | 0.00 | 0.00 | 0.00 | 49 | 1015.3 |
| 20260504035856 | 51 | 269 | 1.0 | 1.0 | 0.00 | 0.00 | 0.00 | 49 | 1015.4 |
| 20260504035354 | 51 | 271 | 0.0 | 1.0 | 0.00 | 0.00 | 0.00 | 48 | 1015.4 |
| 20260504034850 | 51 | 278 | 1.0 | 1.0 | 0.00 | 0.00 | 0.00 | 49 | 1015.3 |
| 20260504034348 | 51 | 273 | 2.0 | 2.0 | 0.00 | 0.00 | 0.00 | 49 | 1015.4 |
| 20260504033844 | 51 | 267 | 2.0 | 2.0 | 0.00 | 0.00 | 0.00 | 49 | 1015.1 |
| 20260504033343 | 51 | 272 | 1.0 | 1.0 | 0.00 | 0.00 | 0.00 | 50 | 1015.4 |
| 20260504032839 | 51 | 273 | 0.0 | 1.0 | 0.00 | 0.00 | 0.00 | 49 | 1015.1 |
| 20260504032336 | 51 | 275 | 1.0 | 1.0 | 0.00 | 0.00 | 0.00 | 48 | 1015.4 |
| 20260504031833 | 51 | 267 | 1.0 | 1.0 | 0.00 | 0.00 | 0.00 | 49 | 1015.3 |
| 20260504031330 | 51 | 262 | 1.0 | 1.0 | 0.00 | 0.00 | 0.00 | 49 | 1015.3 |
| 20260504030826 | 51 | 260 | 1.0 | 2.0 | 0.00 | 0.00 | 0.00 | 49 | 1015.4 |
| 20260504030324 | 51 | 274 | 1.0 | 1.0 | 0.00 | 0.00 | 0.00 | 47 | 1015.2 |
| 20260504025820 | 51 | 282 | 0.0 | 1.0 | 0.00 | 0.00 | 0.00 | 48 | 1015.4 |
| 20260504025317 | 51 | 274 | 1.0 | 1.0 | 0.00 | 0.00 | 0.00 | 48 | 1015.2 |
| 20260504024814 | 52 | 261 | 0.0 | 1.0 | 0.00 | 0.00 | 0.00 | 47 | 1015.4 |
| 20260504024310 | 52 | 261 | 2.0 | 2.0 | 0.00 | 0.00 | 0.00 | 48 | 1015.4 |
| 20260504023807 | 52 | 270 | 1.0 | 1.0 | 0.00 | 0.00 | 0.00 | 46 | 1015.3 |
| 20260504023303 | 52 | 279 | 1.0 | 1.0 | 0.00 | 0.00 | 0.00 | 46 | 1015.3 |
| 20260504022759 | 52 | 267 | 2.0 | 2.0 | 0.00 | 0.00 | 0.00 | 46 | 1015.3 |
| 20260504022256 | 52 | 279 | 0.0 | 1.0 | 0.00 | 0.00 | 0.00 | 46 | 1015.4 |
| 20260504021752 | 52 | 277 | 1.0 | 1.0 | 0.00 | 0.00 | 0.00 | 46 | 1015.3 |
| 20260504021250 | 52 | 277 | 1.0 | 1.0 | 0.00 | 0.00 | 0.00 | 46 | 1015.2 |
| 20260504020747 | 52 | 274 | 1.0 | 1.0 | 0.00 | 0.00 | 0.00 | 46 | 1015.2 |
| 20260504020243 | 52 | 285 | 1.0 | 1.0 | 0.00 | 0.00 | 0.00 | 47 | 1015.2 |
| 20260504015739 | 52 | 293 | 1.0 | 1.0 | 0.00 | 0.00 | 0.00 | 46 | 1015.2 |
| 20260504015236 | 52 | 294 | 0.0 | 0.0 | 0.00 | 0.00 | 0.00 | 47 | 1015.2 |
| 20260504014732 | 52 | 297 | 0.0 | 0.0 | 0.00 | 0.00 | 0.00 | 47 | 1015.1 |
| 20260504014229 | 52 | 299 | 1.0 | 1.0 | 0.00 | 0.00 | 0.00 | 46 | 1015.3 |
| 20260504013726 | 52 | 300 | 0.0 | 1.0 | 0.00 | 0.00 | 0.00 | 46 | 1015.0 |
| 20260504013224 | 52 | 303 | 0.0 | 1.0 | 0.00 | 0.00 | 0.00 | 47 | 1015.1 |
| 20260504012720 | 53 | 303 | 0.0 | 0.0 | 0.00 | 0.00 | 0.00 | 46 | 1015.0 |
| 20260504012218 | 53 | 304 | 1.0 | 1.0 | 0.00 | 0.00 | 0.00 | 46 | 1015.0 |
| 20260504011715 | 53 | 304 | 0.0 | 0.0 | 0.00 | 0.00 | 0.00 | 45 | 1015.0 |
| 20260504011212 | 53 | 307 | 0.0 | 0.0 | 0.00 | 0.00 | 0.00 | 45 | 1014.9 |
| 20260504010708 | 53 | 307 | 0.0 | 1.0 | 0.00 | 0.00 | 0.00 | 45 | 1014.9 |
| 20260504010203 | 53 | 309 | 0.0 | 1.0 | 0.00 | 0.00 | 0.00 | 46 | 1014.7 |
| 20260504005700 | 52 | 310 | 0.0 | 0.0 | 0.00 | 0.00 | 0.00 | 47 | 1014.9 |
| 20260504005157 | 53 | 310 | 1.0 | 2.0 | 0.00 | 0.00 | 0.00 | 48 | 1014.7 |
| 20260504004655 | 53 | 311 | 0.0 | 1.0 | 0.00 | 0.00 | 0.00 | 47 | 1014.5 |
| 20260504004152 | 53 | 316 | 0.0 | 1.0 | 0.00 | 0.00 | 0.00 | 45 | 1014.5 |
| 20260504003648 | 53 | 322 | 0.0 | 0.0 | 0.00 | 0.00 | 0.00 | 44 | 1014.6 |
| 20260504003145 | 53 | 322 | 0.0 | 0.0 | 0.00 | 0.00 | 0.00 | 45 | 1014.4 |
| 20260504002642 | 53 | 322 | 0.0 | 0.0 | 0.00 | 0.00 | 0.00 | 45 | 1014.2 |
| 20260504002139 | 53 | 323 | 0.0 | 0.0 | 0.00 | 0.00 | 0.00 | 44 | 1014.3 |
| 20260504001637 | 53 | 323 | 0.0 | 0.0 | 0.00 | 0.00 | 0.00 | 46 | 1014.3 |
| 20260504001133 | 53 | 323 | 0.0 | 0.0 | 0.00 | 0.00 | 0.00 | 43 | 1014.2 |
| 20260504000630 | 54 | 323 | 0.0 | 0.0 | 0.00 | 0.00 | 0.00 | 46 | 1014.1 |
| 20260504000128 | 54 | 322 | 1.0 | 1.0 | 0.00 | 0.00 | 0.00 | 45 | 1014.1 |
| 20260503235626 | 54 | 322 | 0.0 | 0.0 | 0.00 | 0.00 | 0.00 | 44 | 1014.4 |
| 20260503235122 | 55 | 322 | 0.0 | 1.0 | 0.00 | 0.00 | 0.00 | 43 | 1014.1 |